Terminal Aerodrome Forecast
Issued by NWS Buffalo, NY

Current Version | Previous Version | Text Only | Print | Product List | Glossary On
Versions: 1 2 3 4 5 6 7 8 9 10 11 12 13 14 15 16 17 18 19 20 21 22 23 24 25 26 27 28
000
FTUS41 KBUF 280530
TAFART
TAF
KART 280530Z 2806/2906 19004KT P6SM OVC025
     FM281000 20005KT 3SM BR VCSH OVC007
     FM281700 35004KT P6SM OVC007
     FM282000 01005KT P6SM OVC012=

USA.gov is the U.S. government's official web portal to all federal, state and local government web resources and services.